[keps] orb12166.amsat
Ray Hoad
ray.hoad at mypbmail.com
Thu Jun 14 19:19:28 PDT 2012
SB KEPS @ AMSAT $ORB12166.O
Orbital Elements 12166.OSCAR
HR AMSAT ORBITAL ELEMENTS FOR OSCAR SATELLITES
FROM WA5QGD FORT WORTH,TX June 14, 2012
Send SUBSCRIBE KEPS/UNSUBSCRIBE KEPS to majordomo at amsat.org only
BID: ORB12166.O
TO ALL RADIO AMATEURS BT
Satellite: AO-07
Catalog number: 07530
Epoch time: 12165.55407552
Element set: 404
Inclination: 101.4023 deg
RA of node: 162.9048 deg
Eccentricity: 0.0011736
Arg of perigee: 291.1406 deg
Mean anomaly: 068.8402 deg
Mean motion: 12.53589751 rev/day
Decay rate: -2.7e-07 rev/day^2
Epoch rev: 71959
Checksum: 286
Satellite: FO-29
Catalog number: 24278
Epoch time: 12165.85803408
Element set: 0875
Inclination: 098.5860 deg
RA of node: 266.9475 deg
Eccentricity: 0.0351026
Arg of perigee: 038.0639 deg
Mean anomaly: 324.4750 deg
Mean motion: 13.52984571 rev/day
Decay rate: 5.6e-07 rev/day^2
Epoch rev: 78150
Checksum: 339
Satellite: SO-33
Catalog number: 25509
Epoch time: 12165.91561362
Element set: 0255
Inclination: 031.4338 deg
RA of node: 352.2096 deg
Eccentricity: 0.0352460
Arg of perigee: 174.7493 deg
Mean anomaly: 185.6965 deg
Mean motion: 14.28770724 rev/day
Decay rate: 4.80e-06 rev/day^2
Epoch rev: 71218
Checksum: 314
Satellite: RS-22
Catalog number: 27939
Epoch time: 12166.53679821
Element set: 446
Inclination: 097.8133 deg
RA of node: 007.4892 deg
Eccentricity: 0.0012310
Arg of perigee: 274.7905 deg
Mean anomaly: 085.1912 deg
Mean motion: 14.64040362 rev/day
Decay rate: 6.31e-06 rev/day^2
Epoch rev: 46549
Checksum: 311
Satellite: VO-52
Catalog number: 28650
Epoch time: 12165.61388063
Element set: 126
Inclination: 097.5971 deg
RA of node: 196.7431 deg
Eccentricity: 0.0027489
Arg of perigee: 054.4587 deg
Mean anomaly: 305.9175 deg
Mean motion: 14.82980063 rev/day
Decay rate: 1.564e-05 rev/day^2
Epoch rev: 38444
Checksum: 338
Satellite: HO-68
Catalog number: 36122
Epoch time: 12166.40321011
Element set: 552
Inclination: 100.3613 deg
RA of node: 225.8063 deg
Eccentricity: 0.0007813
Arg of perigee: 114.2244 deg
Mean anomaly: 245.9684 deg
Mean motion: 13.16296331 rev/day
Decay rate: -4.4e-07 rev/day^2
Epoch rev: 12002
Checksum: 243
/EX
SB KEPS @ AMSAT $ORB12166.D
Orbital Elements 12166.MICROS
HR AMSAT ORBITAL ELEMENTS FOR THE MICROSATS
FROM WA5QGD FORT WORTH,TX June 14, 2012
Send SUBSCRIBE KEPS/UNSUBSCRIBE KEPS to majordomo at amsat.org only
BID: ORB12166.D
TO ALL RADIO AMATEURS BT
Satellite: UO-11
Catalog number: 14781
Epoch time: 12165.67389998
Element set: 0910
Inclination: 097.9533 deg
RA of node: 225.2254 deg
Eccentricity: 0.0009996
Arg of perigee: 049.3066 deg
Mean anomaly: 310.9005 deg
Mean motion: 14.80462387 rev/day
Decay rate: 8.10e-06 rev/day^2
Epoch rev: 51941
Checksum: 326
Satellite: AO-16
Catalog number: 20439
Epoch time: 12165.87344088
Element set: 0493
Inclination: 098.4306 deg
RA of node: 109.3407 deg
Eccentricity: 0.0010899
Arg of perigee: 164.1243 deg
Mean anomaly: 196.0283 deg
Mean motion: 14.32058009 rev/day
Decay rate: 1.45e-06 rev/day^2
Epoch rev: 16952
Checksum: 304
Satellite: LO-19
Catalog number: 20442
Epoch time: 12165.89694452
Element set: 0419
Inclination: 098.3943 deg
RA of node: 112.3812 deg
Eccentricity: 0.0012301
Arg of perigee: 156.6246 deg
Mean anomaly: 203.5498 deg
Mean motion: 14.32276447 rev/day
Decay rate: 1.31e-06 rev/day^2
Epoch rev: 16971
Checksum: 299
Satellite: AO-27
Catalog number: 22825
Epoch time: 12166.44606042
Element set: 126
Inclination: 098.5738 deg
RA of node: 109.3038 deg
Eccentricity: 0.0007575
Arg of perigee: 290.4079 deg
Mean anomaly: 069.6285 deg
Mean motion: 14.29464232 rev/day
Decay rate: 1.7e-07 rev/day^2
Epoch rev: 97608
Checksum: 320
Satellite: IO-26
Catalog number: 22826
Epoch time: 12166.51744674
Element set: 876
Inclination: 098.5696 deg
RA of node: 109.7445 deg
Eccentricity: 0.0008191
Arg of perigee: 285.4039 deg
Mean anomaly: 074.6235 deg
Mean motion: 14.29739126 rev/day
Decay rate: 1.43e-06 rev/day^2
Epoch rev: 97622
Checksum: 341
Satellite: GO-32
Catalog number: 25397
Epoch time: 12166.30438691
Element set: 799
Inclination: 098.3620 deg
RA of node: 145.1553 deg
Eccentricity: 0.0000625
Arg of perigee: 347.7880 deg
Mean anomaly: 012.3294 deg
Mean motion: 14.23279069 rev/day
Decay rate: 7.7e-07 rev/day^2
Epoch rev: 72361
Checksum: 316
Satellite: NO-44
Catalog number: 26931
Epoch time: 12165.82334906
Element set: 0064
Inclination: 067.0517 deg
RA of node: 129.0106 deg
Eccentricity: 0.0007665
Arg of perigee: 263.3722 deg
Mean anomaly: 096.6511 deg
Mean motion: 14.29805274 rev/day
Decay rate: 4.48e-06 rev/day^2
Epoch rev: 55876
Checksum: 310
Satellite: SO-50
Catalog number: 27607
Epoch time: 12165.77392259
Element set: 786
Inclination: 064.5594 deg
RA of node: 305.2828 deg
Eccentricity: 0.0082818
Arg of perigee: 249.4044 deg
Mean anomaly: 109.8177 deg
Mean motion: 14.72396592 rev/day
Decay rate: 8.21e-06 rev/day^2
Epoch rev: 50946
Checksum: 348
Satellite: CO-55
Catalog number: 27844
Epoch time: 12165.61238551
Element set: 395
Inclination: 098.7024 deg
RA of node: 174.0425 deg
Eccentricity: 0.0008859
Arg of perigee: 231.2482 deg
Mean anomaly: 128.7901 deg
Mean motion: 14.21028529 rev/day
Decay rate: 2.42e-06 rev/day^2
Epoch rev: 46438
Checksum: 308
Satellite: CO-57
Catalog number: 27848
Epoch time: 12165.54497950
Element set: 0347
Inclination: 098.7110 deg
RA of node: 173.3087 deg
Eccentricity: 0.0008659
Arg of perigee: 236.4301 deg
Mean anomaly: 123.6046 deg
Mean motion: 14.20779554 rev/day
Decay rate: 2.17e-06 rev/day^2
Epoch rev: 46431
Checksum: 319
Satellite: AO-51
Catalog number: 28375
Epoch time: 12165.46947333
Element set: 290
Inclination: 098.1475 deg
RA of node: 130.9185 deg
Eccentricity: 0.0084784
Arg of perigee: 052.2402 deg
Mean anomaly: 308.6436 deg
Mean motion: 14.40951581 rev/day
Decay rate: 1.93e-06 rev/day^2
Epoch rev: 41823
Checksum: 312
Satellite: CP3
Catalog number: 31129
Epoch time: 12165.57085980
Element set: 188
Inclination: 097.8842 deg
RA of node: 173.5602 deg
Eccentricity: 0.0102036
Arg of perigee: 133.9232 deg
Mean anomaly: 227.0401 deg
Mean motion: 14.53077182 rev/day
Decay rate: 7.34e-06 rev/day^2
Epoch rev: 27345
Checksum: 288
Satellite: CO-65
Catalog number: 32785
Epoch time: 12165.66850738
Element set: 0334
Inclination: 097.7995 deg
RA of node: 226.8031 deg
Eccentricity: 0.0015777
Arg of perigee: 074.4227 deg
Mean anomaly: 285.8738 deg
Mean motion: 14.82991841 rev/day
Decay rate: 1.592e-05 rev/day^2
Epoch rev: 22324
Checksum: 352
Satellite: PRISM
Catalog number: 33493
Epoch time: 12166.42840077
Element set: 788
Inclination: 098.1702 deg
RA of node: 306.9246 deg
Eccentricity: 0.0017816
Arg of perigee: 308.5494 deg
Mean anomaly: 051.4204 deg
Mean motion: 14.83892337 rev/day
Decay rate: 2.587e-05 rev/day^2
Epoch rev: 18334
Checksum: 319
Satellite: SOHLA-1
Catalog number: 33496
Epoch time: 12165.83729951
Element set: 0761
Inclination: 098.1046 deg
RA of node: 277.5950 deg
Eccentricity: 0.0007552
Arg of perigee: 058.1359 deg
Mean anomaly: 302.0581 deg
Mean motion: 14.69975468 rev/day
Decay rate: 4.00e-06 rev/day^2
Epoch rev: 18175
Checksum: 326
Satellite: SO-67
Catalog number: 35870
Epoch time: 12166.42839084
Element set: 48
Inclination: 097.2321 deg
RA of node: 202.2724 deg
Eccentricity: 0.0002648
Arg of perigee: 140.6537 deg
Mean anomaly: 342.9503 deg
Mean motion: 15.23822169 rev/day
Decay rate: 4.637e-05 rev/day^2
Epoch rev: 15219
Checksum: 303
Satellite: TISAT-1
Catalog number: 36799
Epoch time: 12166.36998303
Element set: 64
Inclination: 098.0620 deg
RA of node: 242.6842 deg
Eccentricity: 0.0014987
Arg of perigee: 176.3797 deg
Mean anomaly: 183.7528 deg
Mean motion: 14.81957995 rev/day
Decay rate: 1.968e-05 rev/day^2
Epoch rev: 10407
Checksum: 361
Satellite: STUDSAT
Catalog number: 36801
Epoch time: 12165.90347714
Element set: 0461
Inclination: 098.0718 deg
RA of node: 242.9100 deg
Eccentricity: 0.0012749
Arg of perigee: 164.3930 deg
Mean anomaly: 195.7676 deg
Mean motion: 14.84306629 rev/day
Decay rate: 6.013e-05 rev/day^2
Epoch rev: 10403
Checksum: 289
Satellite: FO-69
Catalog number: 37227
Epoch time: 12165.31385081
Element set: 0206
Inclination: 071.9687 deg
RA of node: 320.5061 deg
Eccentricity: 0.0017601
Arg of perigee: 323.0507 deg
Mean anomaly: 036.9443 deg
Mean motion: 14.77080688 rev/day
Decay rate: 5.51e-06 rev/day^2
Epoch rev: 03552
Checksum: 292
Satellite: FO-70
Catalog number: 37380
Epoch time: 12165.31875240
Element set: 0211
Inclination: 071.9719 deg
RA of node: 321.0504 deg
Eccentricity: 0.0018131
Arg of perigee: 319.9132 deg
Mean anomaly: 040.0692 deg
Mean motion: 14.76832026 rev/day
Decay rate: 5.18e-06 rev/day^2
Epoch rev: 03541
Checksum: 265
Satellite: ALMASAT-1
Catalog number: 38078
Epoch time: 12166.34852861
Element set: 299
Inclination: 069.4971 deg
RA of node: 323.6890 deg
Eccentricity: 0.0760981
Arg of perigee: 252.2672 deg
Mean anomaly: 099.4030 deg
Mean motion: 14.09107128 rev/day
Decay rate: 1.4679e-04 rev/day^2
Epoch rev: 1715
Checksum: 331
Satellite: XATCOBEO
Catalog number: 38082
Epoch time: 12166.50517906
Element set: 316
Inclination: 069.4956 deg
RA of node: 321.5677 deg
Eccentricity: 0.0739698
Arg of perigee: 251.0918 deg
Mean anomaly: 100.8382 deg
Mean motion: 14.15942625 rev/day
Decay rate: 3.6724e-04 rev/day^2
Epoch rev: 1721
Checksum: 319
/EX
SB KEPS @ AMSAT $ORB12166.W
Orbital Elements 12166.WEATHER
HR AMSAT ORBITAL ELEMENTS FOR WEATHER SATELLITES
FROM WA5QGD FORT WORTH,TX June 14, 2012
Send SUBSCRIBE KEPS/UNSUBSCRIBE KEPS to majordomo at amsat.org only
BID: ORB12166.W
TO ALL RADIO AMATEURS BT
Satellite: NOAA-10
Catalog number: 16969
Epoch time: 12165.72585712
Element set: 0956
Inclination: 098.5805 deg
RA of node: 194.8415 deg
Eccentricity: 0.0011361
Arg of perigee: 244.1366 deg
Mean anomaly: 115.8618 deg
Mean motion: 14.27556856 rev/day
Decay rate: 7.5e-07 rev/day^2
Epoch rev: 33937
Checksum: 336
